Regional Weather Roundup
Issued by NWS Upton, NY

Current Version | Previous Version | Text Only | Print | Product List | Glossary On
Versions: 1 2 3 4 5 6 7 8 9 10 11 12 13 14 15 16 17 18 19 20 21 22 23 24 25 26 27 28 29 30 31 32 33 34 35 36 37 38 39 40 41 42 43 44 45 46 47 48 49 50
000 ASUS41 KOKX 291404 RWROKX REGIONAL WEATHER ROUNDUP NATIONAL WEATHER SERVICE NEW YORK NY 1000 AM EDT SAT AUG 29 2015 NOTE: "FAIR" INDICATES FEW OR NO CLOUDS BELOW 12,000 FEET WITH NO SIGNIFICANT WEATHER AND/OR OBSTRUCTIONS TO VISIBILITY. NYZ071-072-176-178-NJZ106-104-291500- NEW YORK CITY METRO AREA CITY SKY/WX TMP DP RH WIND PRES REMARKS CENTRAL PARK SUNNY 76 54 46 W5 30.24S LAGUARDIA APRT MOSUNNY 78 55 44 CALM 30.20F KENNEDY INTL PTSUNNY 78 56 46 SW5 30.22S NEWARK/LIBERTY PTSUNNY 78 54 43 CALM 30.21S BRNX BOT. GARD N/A 77 54 44 NW3 30.23F TETERBORO SUNNY 75 53 46 CALM 30.21S $$ NYZ177-179-078>081-291500- LONG ISLAND NEW YORK CITY SKY/WX TMP DP RH WIND PRES REMARKS FARMINGDALE SUNNY 78 56 46 NW7 30.22S ISLIP MOSUNNY 78 57 48 W6 30.20S SHIRLEY SUNNY 79 56 45 NW6 30.22S WESTHAMPTON SUNNY 79 56 45 NW6 30.23S MONTAUK POINT N/A 76 63 64 W5 30.22S $$ NYZ052-065-067-291500- HUDSON VALLEY CITY SKY/WX TMP DP RH WIND PRES REMARKS WHITE PLAINS SUNNY 75 54 47 SW5 30.22S NEWBURGH SUNNY 68 59 73 CALM 30.24S MONTGOMERY SUNNY 69 57 65 SW3 30.22F POUGHKEEPSIE SUNNY 70 56 61 CALM 30.21F ALBANY PTSUNNY 67 57 70 VRB3 30.21S $$ NJZ001-105-106-008-010-013-015-019>022-104-291500- NEW JERSEY CITY SKY/WX TMP DP RH WIND PRES REMARKS NEWARK/LIBERTY PTSUNNY 78 54 43 CALM 30.21S TETERBORO SUNNY 75 53 46 CALM 30.21S CALDWELL SUNNY 72 55 55 CALM 30.22F MORRISTOWN MOSUNNY 73 59 60 CALM 30.22F SOMERVILLE SUNNY 74 59 59 CALM 30.20F SUSSEX LGT RAIN 69 58 67 CALM 30.23S ANDOVER N/A 70 61 73 CALM 30.23S TRENTON SUNNY 74 61 63 VRB5 30.22S MILLVILLE SUNNY 77 64 64 W5 30.23S ATLANTIC CITY SUNNY 77 61 57 SW6 30.24R WRIGHTSTOWN SUNNY 76 62 61 VRB2 30.20S TOMS RIVER SUNNY 79 61 53 NW6 30.23S BELMAR SUNNY 77 59 53 W3 30.23R $$ PAZ047>061-062-071-291500- EASTERN PENNSYLVANIA CITY SKY/WX TMP DP RH WIND PRES REMARKS PHILADELPHIA MOSUNNY 77 59 53 W7 30.23S ALLENTOWN SUNNY 70 59 68 CALM 30.23S SCRANTON SUNNY 69 55 60 CALM 30.22F $$ CTZ002-004>006-009-010-012-RIZ004-006-007-MAZ004-011-015-291500- SOUTHERN NEW ENGLAND IN CT CITY SKY/WX TMP DP RH WIND PRES REMARKS BRADLEY INTL MOSUNNY 71 56 58 SW3 30.20F HARTFORD SUNNY 70 59 68 CALM 30.21F DANBURY SUNNY 71 56 58 VRB3 30.24S WTRBRY/OXFORD MOSUNNY 70 55 60 W5 30.25F BRIDGEPORT SUNNY 75 58 55 VRB3 30.21F MERIDEN SUNNY 75 55 49 CALM 30.21F NEW HAVEN MOSUNNY 72 56 57 W3 30.22S CHESTER NOT AVBL GROTON SUNNY 72 56 57 S6 30.21S WILLIMANTIC SUNNY 71 58 63 CALM 30.21F IN RI CITY SKY/WX TMP DP RH WIND PRES REMARKS PROVIDENCE MOSUNNY 76 55 48 SW8 30.21S BLOCK ISLAND SUNNY 75 63 64 W6 30.22S WESTERLY SUNNY 76 56 49 SW5 30.22R IN MA CITY SKY/WX TMP DP RH WIND PRES REMARKS BOSTON SUNNY 76 53 44 W7 30.19S WORCESTER SUNNY 69 53 56 W10 30.23R WESTFIELD SUNNY 68 56 65 CALM 30.21F PROVINCETOWN SUNNY 72 57 60 W8 30.20S NANTUCKET SUNNY 76 63 64 SW10 30.21R $$ ANZ330-335-338-340-345-350-353-355-291500- COASTAL MARINE OBSERVATIONS STATION/POSITION TIME SKY/WX TEMP WIND PRES VSBY WAVE AIR SEA DIR/SP/G HT/PER (UTC) (F) (DEG/KT/KT) (MB) (MI) (FT/S) NY HARB ENTRANCE 1250 73 75 290/ 4/ 6 1023.0 3/11 4S FIRE IS NOT AVBL 20S FIRE ISLAND 1250 73 74 300/ 4/ 6 1023.0 3/11 GREAT SOUTH BAY 1300 73 77 320/ 2/ 4 N/A 23SW MTP 1350 72 72 280/ 10/ 10 1022.7 3/11 HUDSON CANYON NOT AVBL KINGS POINT NOT AVBL EXECUTION ROCKS 1300 71 CALM / 2 N/A CENTRAL LI SOUND NOT AVBL EASTERN LI SOUND 1300 74 71 350/ 4/ 4 N/A ROBBINS REEF NOT AVBL $$ >>>>>>>>>>>>>>>>>>>>>>>>>>>> KEY <<<<<<<<<<<<<<<<<<<<<<<<<<< > < > SKY/WX - SKY CONDITION/PRESENT WEATHER < > TMP - TEMPERATURE IN FAHRENHEIT < > DP - DEWPOINT IN FAHRENHEIT < > RH - RELATIVE HUMIDITY IN PERCENT < > WIND - DIRECTION AND SPEED IN MPH < > PRES - MEAN SEA LEVEL PRESSURE IN INCHES OF HG < > WCI - WIND CHILL INDEX < > VSB - VISIBILITY IN MILES < > HX - HEAT INDEX < > TC - TEMPERATURE IN CELSIUS < > VRB - VARIABLE WIND DIRECTION < > < >>>>>>>>>>>>>>>>>>>>>>>>>>>> KEY <<<<<<<<<<<<<<<<<<<<<<<<<<<

USA.gov is the U.S. government's official web portal to all federal, state and local government web resources and services.